OPS 4682 DEB, 38376

Orbit data source: Space-Track

OPS 4682 DEB, 38376 is space debris in LEO originally from a launch on Sat, 03 Apr 1965 UTC launched from the Air Force Western Test Range (AFWTR). Debris objects in space refer to the collection of defunct objects orbiting the Earth. Examples of debris include non-operational satellites, rocket bodies, and fragments generated from explosions, collisions, or faulty payload assembly.

Loading next visibility...
Identifier
38376, 1965-027CD
Orbit
LEO
Country
Flag of USUS
Related business
Manufacturer
Unknown
Mission
Spacecraft
Bus & Motor
Unknown
Mass
Unknown
Launch date (UTC)
1965-04-03 (61 years ago)
Launch vehicle
Unknown
Launch site
Air Force Western Test Range (AFWTR)
Object type
Payload
Rocket body
Debris
Shape & HBR
Unknown shape, 0.1 m
Radar Cross Section
Small (<0.1 m²)

Expand to show TLE details & history
Last TLE update: 1 day ago

TLE from 1 day ago
0 OPS 4682 DEB
1 38376U 65027CD  26035.32669179 -.00000168  00000-0 -61942-3 0  9998
2 38376  90.2415   7.8082 0029995 129.4781 230.8999 12.95811770644589
Epoch: 2026-02-04T07:50Z
TLE epoch observation values (Epoch: 2026-02-04T07:50:26.170Z)
Latitude
-0.00001°
Longitude
115.70429°
Altitude
1,295.947 km
Speed
7.202 km/s
True Right ascension
00h 31m 13s
True Declination
0° 00' 00"
Sunlit
Object was in daylight at epoch
Visualization orbit readout
Latitude
Unknown
Longitude
Unknown
Altitude
Unknown
Speed
Unknown
Apparent Right ascension
Unknown
Apparent Declination
Unknown
Sunlit
N/A
Visualization observer readout
Local Sidereal Time
10:24:57
Azimuth
Unknown
Elevation
Unknown
Doppler factor
Unknown
Orbital elements
Apogee altitude
1,298.631 km
Perigee altitude
1,252.716 km
Semi-major axis
7,653.811 km
Eccentricity
0.003
Inclination
90.2415°
RAAN
7.8082°
Arg. of periapsis
129.4781°
True anomaly
230.63379°
Mean anomaly
230.8999°
Eccentric anomaly
230.76678°
Mean motion
3.24135 °/min
Orbital period
111.06 mins
BSTAR
-0.00061942
Loading maneuver chart data...
Computing Atmospheric mass density...
Loading historical data...
Loading historical data...
Loading historical data...
Loading historical data...
Loading historical data...
Loading historical data...
Loading historical data...

Documentation

Showing up to 5 results
|